Probability
0 0 0 0 0 0 0 0 0 0 0 0 0 0 0 0 0 0 0 0 0 0 0 0 0 0 0 0 0 0 0 0 0 0 0 1 2 2 1 0 0 0 0 0 0 0 0 0 0
0 0 0 0 0 0 0 0 0 0 0 0 0 0 0 0 0 0 0 0 0 0 0 0 0 0 0 0 0 0 0 0 0 0 0 1 3 2 1 0 0 0 0 0 0 0 0 0 0
0 0 0 0 0 0 0 0 0 0 0 0 0 0 0 0 0 0 0 0 0 0 0 0 0 0 0 0 0 0 0 0 0 0 0 2 3 2 1 0 0 0 0 0 0 0 0 0 0
0 0 0 0 0 0 0 0 0 0 0 0 0 0 0 0 0 0 0 0 0 0 0 0 0 0 0 0 0 0 0 0 0 0 1 1 3 3 2 1 0 0 0 1 0 0 0 0 0
0 0 0 0 0 0 0 0 0 0 0 0 0 0 0 0 0 0 0 0 0 0 0 0 0 0 0 0 0 0 0 0 0 1 2 2 3 3 2 1 0 0 0 0 0 0 0 0 0
0 0 0 0 0 0 0 0 0 0 0 0 0 0 0 0 0 0 0 0 0 0 0 0 0 0 0 0 0 0 0 0 1 2 3 3 3 3 3 2 1 0 0 0 0 0 0 0 0
0 0 0 0 0 0 0 0 0 0 0 0 0 0 0 0 0 0 0 0 0 0 0 0 0 0 0 0 0 0 0 0 1 3 3 3 3 3 3 2 1 0 0 0 0 0 0 0 0
0 0 0 0 0 0 0 0 0 0 0 0 0 0 0 1 1 1 1 0 0 0 0 0 0 0 0 0 0 0 0 0 1 2 2 2 2 2 2 2 1 0 0 0 1 1 0 0 0
0 0 0 0 0 0 0 0 0 0 0 0 0 0 1 2 3 2 1 0 0 0 0 0 0 0 0 0 0 0 0 0 1 1 1 1 1 0 1 1 1 1 0 0 1 1 1 0 0
0 0 0 0 0 0 0 0 0 0 0 0 0 1 2 3 3 2 1 0 0 0 0 0 0 0 0 0 0 0 0 0 0 0 0 0 0 0 0 1 2 2 1 0 1 1 1 0 0
0 0 0 0 0 0 0 0 0 0 0 0 1 2 3 3 3 2 1 0 0 0 0 0 0 0 0 0 0 0 0 0 0 0 0 0 0 0 0 1 2 2 1 0 0 0 0 0 0
0 0 0 0 0 0 0 0 0 0 0 0 1 2 3 3 3 1 0 0 0 0 0 0 0 0 0 0 0 1 1 1 1 0 0 0 0 0 0 0 1 1 0 0 0 0 0 0 0
0 0 0 0 0 0 0 0 0 0 0 0 1 2 3 3 3 1 1 0 0 0 0 0 0 0 0 1 1 2 2 2 2 1 1 0 0 0 0 0 0 0 0 0 0 0 0 0 0
0 0 0 0 0 0 0 0 0 0 0 0 1 2 3 3 3 3 2 1 0 0 0 0 0 0 1 2 3 3 3 3 3 3 2 1 0 0 0 0 0 0 0 0 0 0 0 0 0
0 0 0 0 0 0 0 0 0 0 0 0 0 1 2 3 3 3 2 1 0 0 0 0 0 0 1 2 2 3 3 3 3 3 3 2 1 1 0 0 0 0 0 0 0 0 0 0 0
0 0 0 0 0 0 0 0 0 0 0 0 0 0 1 1 2 2 1 1 2 1 0 0 0 0 0 1 1 1 3 3 3 3 3 3 3 2 1 1 0 0 0 0 0 0 0 0 0
0 0 0 0 0 0 0 0 0 0 0 0 0 0 0 0 1 1 1 2 3 2 1 0 1 1 1 1 1 1 3 3 3 3 3 2 3 3 2 1 0 0 0 0 0 0 0 0 0
0 0 0 0 0 0 0 0 0 0 0 0 0 0 0 0 0 0 1 2 3 3 2 1 2 2 2 2 2 3 3 3 3 3 2 1 1 2 1 1 0 0 0 0 0 0 0 0 0
0 0 0 0 0 0 0 0 0 0 0 0 0 0 0 0 0 0 1 2 3 3 3 2 2 3 2 2 2 2 2 3 3 3 2 1 0 0 0 0 0 0 0 0 0 0 0 0 0
0 0 0 0 0 0 0 0 0 0 0 0 0 0 0 0 0 0 0 1 2 3 3 3 3 2 1 1 1 1 1 1 2 3 3 2 1 0 0 0 0 0 0 0 0 0 0 0 0
0 0 0 0 0 0 0 0 0 0 0 0 0 0 0 0 0 0 0 0 1 3 3 3 3 3 2 1 0 0 0 0 1 1 2 2 1 0 0 0 0 0 0 0 0 0 0 0 0
0 0 0 0 0 0 0 0 0 0 0 0 0 0 0 0 0 0 0 0 1 2 3 3 3 3 3 1 0 0 0 0 0 0 1 1 0 0 0 0 0 0 0 0 0 0 0 0 0
0 0 0 0 0 0 0 0 0 0 0 0 0 0 0 0 0 0 0 0 1 2 3 3 3 3 3 2 0 0 0 0 0 0 0 0 0 0 0 0 0 0 0 0 0 0 0 0 0
0 0 0 0 0 0 0 0 0 0 0 0 0 1 1 1 0 0 0 0 1 2 3 3 3 3 2 1 0 0 0 0 0 0 0 0 0 0 0 0 0 0 0 0 0 0 0 0 0
0 0 0 0 0 0 0 0 0 0 0 0 0 1 2 2 1 0 0 0 1 2 3 3 3 3 1 0 0 0 0 0 0 0 0 0 0 0 0 0 0 0 0 0 0 0 0 0 0
0 0 0 0 0 0 0 0 0 0 0 0 0 1 2 2 1 0 0 0 1 2 3 3 3 2 1 0 0 0 0 0 0 0 0 0 0 0 0 0 0 0 0 0 0 0 0 0 0
0 0 0 0 0 0 0 0 0 0 0 0 0 1 2 2 1 0 0 0 1 2 3 3 3 3 1 0 0 0 0 0 0 0 0 0 0 0 0 0 0 0 0 0 0 0 0 0 0
0 0 0 0 0 0 0 0 0 0 0 0 0 0 1 1 0 0 0 0 0 1 2 3 3 3 2 1 0 0 0 0 0 0 0 0 0 0 0 0 0 0 0 0 0 0 0 0 0
0 0 0 0 0 0 0 0 0 0 0 0 0 0 0 0 0 0 0 0 0 0 1 3 3 3 2 1 0 0 0 0 0 0 0 0 0 0 0 0 0 0 0 0 0 0 0 0 0
0 0 0 0 0 0 0 0 0 0 0 0 0 0 0 0 0 0 0 0 0 0 1 2 3 3 1 0 0 0 0 0 0 0 0 0 0 0 0 0 0 0 0 0 0 0 0 0 0
Wind_Speed
3 3 3 5 8 7 4 2 1 1 3 2 3 5 5 4 3 2 2 1 1 1 2 2 4 5 7 7 8 9 10 10 9 9 10 10 10 10 10 10 10 11 11 10 9 9 8 9 9
2 2 5 6 7 4 2 2 1 1 3 3 4 5 5 4 2 2 1 1 1 1 2 2 4 6 7 8 8 9 9 9 9 8 9 10 10 10 10 10 10 10 10 10 10 9 9 9 10
3 5 6 6 5 4 2 1 1 2 3 2 4 4 3 2 1 1 1 1 2 2 2 2 5 7 7 8 8 8 8 8 8 8 9 9 10 10 10 10 10 10 10 9 10 10 10 9 10
4 6 6 7 5 1 2 2 2 3 3 4 4 4 3 2 1 2 2 3 3 2 2 2 5 6 7 8 8 8 8 9 8 8 9 9 9 10 10 10 10 10 10 10 10 9 9 9 9
5 6 7 5 3 2 1 1 2 4 3 3 4 4 2 4 3 4 4 3 3 2 2 2 5 6 7 8 8 8 8 8 9 9 9 9 9 9 10 10 10 10 10 10 10 10 9 9 9
6 6 6 3 2 2 2 2 3 4 3 3 4 3 1 2 3 3 4 4 3 3 3 3 5 6 7 7 8 8 8 7 8 8 8 8 9 9 10 10 10 10 10 10 10 11 11 11 11
6 6 4 4 2 2 1 1 3 4 3 2 3 3 1 1 1 3 4 4 4 3 4 3 3 4 6 7 7 8 8 8 8 8 8 8 8 9 9 10 9 9 9 10 10 11 11 11 12
5 6 4 3 3 1 1 2 2 3 2 2 3 4 2 2 3 4 5 4 4 3 4 3 3 4 4 4 7 8 9 9 9 9 8 8 8 8 9 8 9 9 9 10 11 11 11 12 12
5 7 3 3 3 1 1 3 2 2 4 3 2 2 2 5 6 6 4 3 3 2 3 3 3 3 3 3 5 6 7 8 8 7 9 7 4 4 5 7 9 10 10 10 10 11 11 12 12
6 5 3 3 3 3 2 3 2 3 3 3 3 3 5 6 6 5 3 2 1 1 1 2 2 2 3 3 3 3 3 4 4 4 4 3 3 3 5 6 9 9 10 9 10 11 11 9 5
4 4 2 1 2 3 3 2 2 5 2 2 4 4 5 5 4 3 2 2 2 1 1 1 1 2 2 2 2 2 2 3 3 4 4 3 3 3 3 3 4 5 6 5 6 7 5 5 4
4 2 2 2 2 3 3 3 3 2 2 2 5 7 6 5 4 3 2 2 1 1 1 0 1 2 2 2 2 2 2 2 2 2 3 2 2 2 2 2 3 3 3 3 3 3 4 5 5
4 2 2 3 4 4 5 4 3 2 1 3 5 6 6 5 2 1 1 1 1 1 1 0 1 1 2 2 1 2 2 2 2 2 2 2 2 2 2 2 2 2 2 3 3 3 4 4 5
2 3 3 3 4 3 6 4 3 2 2 5 5 4 4 3 2 1 1 1 0 1 1 1 1 1 2 1 1 1 1 1 2 2 2 2 2 2 2 2 2 2 2 2 2 3 3 3 3
4 5 4 3 2 2 5 5 2 1 4 4 3 3 2 2 1 1 1 1 1 1 1 1 2 2 2 1 1 1 1 2 2 2 2 2 2 2 2 2 2 2 2 2 2 3 3 3 3
5 4 2 3 2 2 5 0 3 1 4 3 2 2 2 1 1 1 0 0 1 1 1 0 1 2 2 1 1 1 2 2 2 2 2 2 2 2 2 2 2 2 2 2 2 2 3 3 2
4 2 0 2 2 2 3 2 3 1 3 2 2 2 1 0 1 1 0 0 1 1 1 1 1 1 1 1 2 2 2 2 2 2 2 2 2 2 2 2 2 2 2 2 2 2 2 2 2
2 1 1 1 1 3 2 1 3 2 2 2 1 1 1 1 3 1 1 0 1 1 1 2 1 1 1 1 2 2 2 2 2 2 2 3 2 3 3 2 3 3 3 3 2 2 3 2 2
3 3 1 2 1 3 1 1 3 2 1 0 1 2 2 3 2 1 0 0 2 2 2 1 1 1 2 1 1 1 1 1 2 2 2 2 2 2 3 2 2 2 2 2 2 2 3 3 2
3 2 1 1 1 2 1 2 3 1 1 3 3 3 3 2 1 1 1 1 1 1 1 1 1 1 1 1 1 1 1 0 1 1 2 2 2 2 2 2 2 2 2 3 3 3 2 1 2
1 3 3 2 2 3 1 4 3 2 2 1 1 1 1 2 2 1 1 1 1 1 1 1 1 1 1 1 2 2 2 2 2 2 1 2 1 2 2 2 2 2 2 2 1 2 2 1 1
3 3 3 3 3 1 0 3 5 3 3 3 3 2 2 2 1 1 0 0 1 1 1 1 1 1 1 2 2 2 2 1 1 1 0 1 1 1 1 1 2 1 1 1 1 2 1 2 1
2 1 2 2 3 1 2 1 7 2 3 5 4 3 3 2 1 1 1 1 1 0 0 1 1 1 1 2 2 3 1 1 0 0 1 1 1 1 0 1 1 1 1 1 1 1 1 1 1
3 5 5 5 4 1 2 2 6 3 4 4 3 3 2 2 1 0 0 1 1 1 1 1 2 1 1 2 2 2 3 2 1 0 0 0 1 1 0 1 1 1 1 1 1 1 1 1 1
4 5 4 4 3 4 1 2 7 4 4 4 4 3 1 2 2 1 1 0 0 1 1 1 1 1 1 1 1 2 2 2 2 2 1 1 0 1 1 1 1 1 1 1 1 1 1 1 1
2 6 5 3 3 4 1 4 6 3 3 2 2 2 1 1 2 2 2 2 1 1 1 1 1 1 1 1 0 1 1 1 1 2 2 2 2 2 2 1 1 1 1 1 1 1 1 1 1
4 2 4 5 1 2 4 5 7 2 3 2 1 1 1 2 2 2 2 1 1 1 1 2 2 1 0 0 1 0 0 1 1 1 1 1 2 1 1 1 1 1 1 1 1 1 1 1 1
4 6 4 4 2 3 5 4 4 4 4 2 1 2 2 1 1 1 1 2 1 1 1 1 2 2 1 1 1 1 1 1 1 1 1 1 1 1 0 0 0 0 0 1 1 1 1 1 1
2 3 4 3 4 4 3 6 5 4 3 3 4 3 3 2 2 2 1 1 1 0 1 1 1 1 1 1 1 1 1 0 0 1 2 2 1 1 1 1 1 1 1 1 1 1 2 2 1
2 4 5 4 3 4 3 8 4 3 3 3 4 3 2 2 2 2 1 0 0 1 1 1 1 1 1 1 1 1 1 0 0 1 1 1 1 1 1 1 1 1 1 1 2 2 2 2 2
Wind_Direction
18 52 68 56 55 53 54 5 2 54 55 38 60 78 91 82 91 121 283 45 100 360 350 21 54 61 61 61 62 62 65 66 66 68 70 69 68 69 70 70 68 66 64 62 61 64 63 65 63
46 55 53 57 75 74 21 333 62 88 138 134 71 69 71 60 68 104 333 340 97 71 18 38 56 64 66 65 67 68 68 69 67 70 72 71 69 68 69 69 68 67 64 61 59 60 63 65 63
64 54 71 65 81 125 143 232 134 76 92 92 72 57 74 74 76 161 229 153 89 61 29 29 59 64 65 67 71 71 69 72 71 74 75 75 73 70 68 67 66 64 62 59 58 57 61 63 64
68 46 55 67 76 118 167 179 143 98 60 47 85 65 47 18 130 154 123 113 91 59 33 33 59 63 63 67 70 72 68 69 70 75 75 73 71 69 70 67 65 63 62 61 60 59 62 63 65
59 69 63 61 50 12 19 126 104 87 67 47 80 86 29 358 62 101 103 94 88 57 32 39 64 65 64 65 67 69 68 68 70 74 76 74 70 66 67 65 63 63 61 60 58 58 61 64 61
57 64 79 82 48 10 19 52 92 83 86 77 87 94 25 7 78 102 98 85 80 66 39 36 56 65 63 62 62 62 63 66 69 72 72 71 68 65 63 60 61 60 60 60 60 59 61 63 61
90 83 100 113 90 52 51 65 99 102 95 111 123 98 17 9 91 108 93 83 73 60 48 37 32 42 51 55 54 55 56 59 67 70 70 67 65 63 62 55 56 59 62 63 64 63 64 65 63
107 94 83 87 105 94 8 65 78 101 97 98 107 125 189 213 112 92 82 74 64 50 41 38 34 36 36 36 45 50 52 57 63 63 64 62 55 52 53 52 51 55 60 63 64 64 64 62 61
78 78 106 149 145 154 80 89 49 62 88 64 57 134 164 124 108 89 73 55 54 46 27 34 40 34 35 42 43 42 45 48 53 52 54 53 39 35 38 43 51 54 57 59 62 64 65 61 59
74 101 164 183 163 148 108 102 116 81 71 58 54 55 91 108 112 110 114 112 98 46 15 32 43 44 48 50 45 33 38 39 44 45 47 48 42 36 42 36 48 51 54 56 58 63 61 55 46
86 130 151 114 138 130 110 86 80 108 104 181 158 138 118 111 113 126 151 159 171 154 80 45 46 50 62 51 51 39 30 31 32 35 39 46 46 36 37 32 31 35 43 42 46 51 46 47 45
85 87 115 122 120 103 113 103 82 106 197 176 148 135 126 126 140 160 173 192 165 122 138 86 80 63 60 62 57 50 38 30 27 28 37 47 47 39 37 41 28 32 35 40 44 50 47 48 47
76 80 71 90 91 92 82 76 93 13 17 95 105 116 131 141 153 169 141 127 129 159 188 198 95 90 82 73 59 63 42 31 23 27 38 56 60 47 43 41 38 33 38 46 50 54 50 47 44
105 86 68 61 78 79 92 55 54 327 75 92 107 128 139 140 140 86 65 84 137 196 200 192 116 117 108 97 78 62 51 39 36 32 38 58 68 61 54 48 40 32 35 45 59 65 60 49 49
81 74 43 22 54 83 92 35 357 298 93 103 120 132 135 145 126 157 190 173 183 188 183 182 149 104 102 101 96 77 58 59 44 27 38 56 66 66 64 59 39 25 40 56 59 55 58 57 51
57 59 44 328 38 82 101 295 297 1 121 132 139 145 158 190 199 240 199 138 149 139 132 106 127 117 113 102 89 66 60 61 45 33 39 47 53 62 66 58 36 24 42 56 66 58 59 50 46
40 82 164 316 19 92 116 222 291 360 136 153 167 181 193 272 340 311 289 217 160 156 140 122 88 105 132 114 86 70 58 53 40 39 38 39 50 59 67 57 37 39 50 51 67 59 70 65 42
189 168 204 242 322 98 114 244 297 331 125 164 191 208 224 236 250 261 264 269 120 116 118 120 95 85 72 78 70 58 47 39 40 44 37 44 46 52 62 57 38 44 54 43 54 68 55 67 49
155 153 198 245 218 118 165 270 292 308 31 194 237 233 231 243 266 317 331 67 87 72 80 107 100 74 87 79 87 86 45 18 22 30 39 46 50 52 65 59 51 47 59 56 60 70 65 45 40
132 141 192 303 73 136 180 286 288 252 237 217 213 236 239 251 307 358 25 39 90 127 122 112 139 125 142 147 141 130 118 77 62 15 26 34 56 64 71 75 72 58 61 56 54 65 70 47 46
177 180 195 194 40 50 43 328 323 305 323 348 330 255 252 212 215 221 60 57 71 128 180 166 166 145 143 122 87 65 57 40 26 15 9 10 41 63 64 72 81 71 81 88 67 75 83 93 17
246 230 180 156 113 299 44 288 295 302 325 322 304 289 265 249 219 194 121 68 189 221 205 155 125 114 116 118 121 120 127 138 237 249 292 358 34 51 66 86 93 90 82 93 91 84 84 109 85
216 91 111 121 130 32 5 194 289 329 305 285 279 270 255 235 199 194 203 219 221 174 122 138 111 96 100 126 146 142 139 176 191 57 59 19 5 20 56 105 102 96 95 101 93 79 72 98 117
114 72 61 52 71 319 256 182 283 261 248 272 271 268 248 212 188 160 25 57 41 36 52 89 96 83 94 124 139 153 159 155 119 31 42 335 326 326 324 142 131 139 126 127 137 123 108 99 96
71 83 38 4 9 261 254 193 253 261 253 236 241 248 245 193 171 156 118 61 56 64 42 70 103 76 69 117 144 175 176 166 178 201 207 224 281 280 257 209 190 188 201 171 144 130 133 133 130
136 132 151 197 236 286 321 236 256 280 290 259 225 196 146 165 177 189 199 196 191 180 137 117 117 88 61 115 142 172 176 180 202 205 198 208 223 241 247 223 213 212 204 180 158 151 182 146 169
133 155 160 134 158 285 287 290 298 340 358 11 59 97 136 190 197 206 217 202 195 188 181 173 152 129 97 133 119 83 186 197 214 225 209 222 238 245 255 209 212 219 202 197 167 165 198 168 190
136 143 103 113 141 279 296 285 268 297 303 309 266 228 234 227 223 233 232 219 224 215 199 154 151 170 188 173 175 168 197 215 225 209 216 225 244 238 227 230 200 210 190 182 168 179 182 149 237
99 107 110 121 151 165 267 275 237 233 246 252 255 245 226 223 227 231 246 228 211 202 165 150 155 155 157 191 199 178 205 192 192 237 244 232 238 213 197 216 206 206 228 209 177 200 176 176 227
158 164 146 157 217 179 190 267 279 251 255 238 249 253 236 216 225 234 233 219 152 202 196 187 184 188 210 212 190 192 206 166 169 251 264 253 252 254 213 201 206 209 221 220 198 212 202 192 207